CDT,Max TemperatureF,Mean TemperatureF,Min TemperatureF,Max Dew PointF,MeanDew PointF,Min DewpointF,Max Humidity, Mean Humidity, Min Humidity, Max Sea Level PressureIn, Mean Sea Level PressureIn, Min Sea Level PressureIn, Max VisibilityMiles, Mean VisibilityMiles, Min VisibilityMiles, Max Wind SpeedMPH, Mean Wind SpeedMPH, Max Gust SpeedMPH,PrecipitationIn, CloudCover, Events, WindDirDegrees
2012-4-1,94,80,66,63,52,39,70,44,17,29.71,29.63,29.53,10,10,10,30,18,41,0.00,0,,187
2012-4-2,85,74,63,65,59,52,93,63,32,29.65,29.54,29.46,10,10,8,28,16,37,0.00,1,,165
2012-4-3,79,67,54,50,32,19,55,34,13,29.84,29.75,29.63,10,10,8,21,8,26,0.04,3,Rain,265
2012-4-4,78,63,47,49,43,34,86,54,21,29.96,29.86,29.75,10,10,10,22,8,26,0.00,1,,313
2012-4-5,82,64,46,51,46,43,93,61,28,29.91,29.85,29.80,10,10,10,13,6,16,0.00,0,,72
2012-4-6,83,67,51,58,54,50,96,69,42,29.98,29.92,29.85,10,10,10,24,14,28,0.00,0,,130
2012-4-7,84,73,61,65,62,58,93,71,48,30.27,30.06,29.92,10,9,5,25,12,30,0.38,5,Rain-Thunderstorm,186
2012-4-8,76,68,59,61,59,56,100,77,54,30.32,30.22,30.14,10,9,5,21,7,24,T,5,Rain-Thunderstorm,28
2012-4-9,82,70,57,63,59,56,100,71,42,30.16,30.09,29.98,10,9,4,17,8,22,0.00,1,,164
2012-4-10,81,71,61,59,57,55,84,65,45,30.09,30.03,29.97,10,10,10,15,8,20,0.00,0,,159
2012-4-11,82,70,58,59,55,48,93,64,35,30.07,30.00,29.92,10,10,10,21,10,35,0.00,0,,149
2012-4-12,81,73,65,64,62,58,87,69,51,29.96,29.87,29.78,10,10,10,26,15,35,0.00,4,,160
2012-4-13,81,75,68,65,63,32,87,71,54,29.94,29.82,29.73,10,10,10,24,15,33,0.00,5,,171
2012-4-14,86,78,70,66,65,62,84,66,48,29.78,29.64,29.51,10,10,10,35,25,45,0.00,4,,167
2012-4-15,77,64,51,66,44,19,100,57,13,29.93,29.76,29.49,10,9,2,32,13,43,0.45,5,Rain-Thunderstorm,260
2012-4-16,73,60,46,46,42,37,86,61,35,30.22,30.09,29.94,10,10,10,17,7,23,0.00,1,,92
2012-4-17,79,64,48,50,45,39,86,56,25,30.30,30.20,30.09,10,10,10,16,6,21,0.00,0,,152
2012-4-18,84,70,56,48,46,42,77,50,23,30.11,30.00,29.88,10,10,10,24,14,31,0.00,0,,167
2012-4-19,90,76,62,56,52,48,78,51,24,29.86,29.76,29.60,10,10,10,28,17,36,T,0,Rain-Thunderstorm,193
2012-4-20,76,63,50,56,48,39,73,50,27,30.07,29.90,29.72,10,10,10,26,14,36,T,0,,10
2012-4-21,82,63,43,47,42,37,92,58,23,30.10,30.03,29.95,10,10,10,10,3,13,0.00,0,,153
2012-4-22,86,69,52,49,44,39,71,47,22,30.15,30.05,29.97,10,10,10,18,8,25,0.00,0,,65
2012-4-23,76,62,48,45,40,34,77,52,27,30.26,30.13,30.02,10,10,10,16,7,20,T,1,,122
2012-4-24,90,73,55,53,48,42,57,40,23,30.01,29.89,29.75,10,10,10,21,13,28,0.00,0,,180
2012-4-25,104,86,68,60,52,33,66,38,9,29.75,29.69,29.59,10,10,10,22,15,29,0.00,0,,198
2012-4-26,96,85,74,62,52,47,54,37,20,29.75,29.68,29.63,10,10,10,18,9,23,0.00,0,,209
2012-4-27,96,84,72,57,45,34,54,33,11,29.73,29.64,29.58,10,10,10,22,13,30,0.00,0,,206
2012-4-28,91,79,67,64,61,50,93,66,38,29.74,29.68,29.64,10,10,10,23,14,35,0.00,0,,170
2012-4-29,84,76,68,65,61,57,84,62,40,29.94,29.81,29.74,10,10,7,23,14,26,0.00,6,,148
2012-4-30,88,78,68,66,64,59,87,67,46,29.97,29.85,29.75,10,10,10,28,14,33,0.00,3,,162